Temperature
6 6 5 4 4 3 2 1 0 -2 -2 -1 -1 -1 -2 -2 -2 -3 -3 -4 -4 -4 -5 -5 -5 -6 -6 -5 -5 -5 -5 -4 -4 -4 -3 -3 -3 -2
5 5 4 3 3 2 1 0 -1 -2 -3 -3 -3 -3 -3 -3 -4 -4 -5 -5 -5 -5 -5 -6 -6 -6 -6 -6 -6 -6 -5 -5 -5 -4 -4 -3 -3 -3
4 4 3 2 2 1 0 -1 -1 -3 -4 -4 -4 -4 -4 -4 -4 -5 -5 -5 -5 -5 -6 -6 -6 -6 -6 -6 -6 -6 -6 -6 -5 -5 -5 -4 -4 -4
3 2 2 1 1 0 -1 -1 -2 -3 -4 -5 -5 -5 -5 -6 -6 -6 -6 -6 -6 -6 -6 -7 -7 -6 -6 -6 -6 -6 -6 -6 -6 -6 -6 -5 -5 -4
2 1 1 0 -0 -1 -2 -3 -3 -4 -5 -6 -7 -7 -7 -7 -7 -7 -7 -7 -7 -7 -7 -7 -6 -6 -6 -6 -6 -6 -6 -6 -6 -6 -6 -6 -6 -5
1 0 -0 -1 -1 -2 -3 -4 -5 -6 -6 -7 -7 -8 -8 -8 -8 -8 -8 -8 -7 -7 -7 -7 -6 -6 -6 -6 -6 -6 -6 -6 -6 -6 -6 -6 -6 -5
-0 -1 -1 -1 -2 -3 -5 -5 -6 -7 -7 -8 -8 -8 -8 -8 -8 -9 -9 -9 -8 -7 -7 -7 -6 -6 -6 -6 -6 -6 -6 -6 -6 -7 -6 -6 -6 -6
-1 -1 -2 -2 -3 -4 -5 -6 -7 -7 -8 -8 -8 -9 -9 -9 -9 -9 -9 -9 -9 -8 -8 -8 -7 -6 -6 -6 -6 -6 -6 -6 -7 -7 -7 -6 -6 -6
-1 -2 -3 -3 -4 -5 -6 -7 -7 -8 -8 -8 -9 -9 -9 -9 -9 -9 -9 -9 -9 -8 -8 -8 -7 -7 -6 -6 -6 -6 -6 -6 -6 -6 -7 -7 -6 -6
-3 -4 -4 -5 -6 -6 -7 -8 -8 -8 -8 -8 -9 -9 -9 -9 -9 -9 -10 -9 -9 -8 -8 -9 -7 -7 -7 -6 -6 -5 -6 -6 -6 -6 -6 -6 -6 -6
-4 -5 -6 -6 -6 -8 -8 -8 -8 -8 -8 -8 -9 -9 -9 -9 -9 -9 -9 -9 -9 -8 -8 -9 -8 -8 -7 -6 -5 -6 -6 -6 -6 -6 -6 -6 -6 -6
-5 -6 -6 -7 -8 -8 -9 -9 -9 -8 -8 -8 -8 -8 -8 -8 -8 -9 -9 -10 -10 -10 -8 -9 -9 -10 -10 -8 -7 -6 -6 -5 -6 -6 -5 -5 -5 -6
-6 -6 -7 -8 -8 -9 -9 -9 -9 -9 -9 -8 -8 -7 -7 -7 -7 -8 -8 -9 -10 -10 -8 -10 -10 -10 -11 -10 -8 -6 -6 -6 -5 -5 -5 -5 -5 -6
-7 -8 -8 -9 -9 -9 -9 -9 -9 -9 -8 -8 -8 -8 -8 -7 -7 -8 -8 -8 -8 -8 -8 -9 -10 -10 -11 -11 -10 -7 -6 -6 -6 -5 -5 -5 -5 -5
-9 -9 -9 -9 -9 -8 -8 -8 -8 -8 -8 -8 -8 -8 -8 -8 -8 -8 -7 -8 -7 -7 -7 -8 -9 -9 -10 -11 -10 -8 -7 -6 -6 -6 -6 -6 -5 -5
-9 -9 -9 -9 -9 -8 -8 -8 -8 -8 -8 -8 -8 -8 -8 -8 -8 -8 -8 -8 -8 -7 -7 -7 -8 -9 -9 -9 -9 -8 -7 -7 -6 -6 -7 -6 -5 -5
-9 -9 -8 -8 -8 -8 -8 -8 -8 -8 -8 -8 -8 -8 -8 -8 -8 -8 -8 -8 -8 -8 -7 -7 -7 -8 -8 -9 -9 -7 -7 -7 -7 -7 -8 -8 -6 -6
-9 -9 -9 -9 -8 -8 -8 -8 -8 -8 -8 -8 -8 -8 -8 -8 -8 -8 -8 -8 -9 -8 -8 -8 -8 -8 -8 -8 -8 -8 -8 -8 -7 -7 -8 -8 -8 -6
-9 -9 -9 -9 -9 -8 -8 -8 -8 -8 -8 -8 -8 -8 -8 -8 -8 -8 -8 -8 -8 -8 -8 -8 -8 -9 -10 -10 -9 -8 -8 -8 -8 -8 -7 -8 -8 -6
-9 -9 -9 -9 -9 -8 -8 -8 -8 -8 -8 -8 -8 -8 -8 -8 -8 -8 -8 -9 -9 -9 -8 -8 -8 -9 -9 -9 -9 -7 -6 -7 -8 -8 -7 -7 -7 -6
-9 -9 -9 -9 -9 -8 -8 -8 -8 -8 -8 -8 -8 -8 -8 -8 -8 -8 -8 -8 -9 -9 -9 -8 -8 -8 -8 -9 -9 -7 -6 -6 -7 -7 -7 -7 -7 -6
-9 -9 -9 -9 -8 -8 -8 -8 -8 -8 -8 -8 -8 -8 -8 -8 -8 -8 -8 -8 -9 -9 -9 -8 -7 -8 -8 -8 -8 -8 -6 -5 -5 -5 -5 -6 -6 -6
-9 -9 -8 -8 -8 -8 -8 -8 -8 -8 -8 -8 -7 -7 -8 -8 -8 -8 -8 -8 -8 -8 -8 -8 -7 -7 -7 -8 -8 -7 -7 -6 -6 -5 -4 -5 -5 -5
Wind_Speed
5 5 3 2 2 3 3 4 3 3 3 4 3 3 8 13 17 17 16 23 26 26 26 27 27 27 28 29 29 29 29 29 29 30 30 30 31 31
3 4 3 2 2 2 3 3 4 5 4 4 5 5 9 14 19 19 20 25 24 25 26 27 28 28 28 28 29 29 29 29 30 30 30 30 31 31
3 3 2 2 2 3 3 3 4 4 7 6 4 4 6 9 14 18 19 19 19 24 27 28 28 28 29 29 29 29 29 29 30 30 30 30 30 30
2 1 2 2 3 3 3 4 5 5 6 8 5 5 7 9 9 10 15 18 18 24 27 28 28 28 28 28 28 29 29 29 30 30 30 30 30 30
1 0 2 3 4 4 5 5 5 6 5 6 8 5 6 8 9 10 11 11 17 21 24 26 27 27 28 29 29 30 30 29 29 29 29 29 29 29
2 1 3 4 5 5 5 6 6 6 6 6 7 7 7 8 7 9 11 8 11 15 20 22 24 26 27 29 29 29 29 29 29 29 28 28 29 29
2 3 4 5 6 6 5 5 5 5 5 6 8 8 8 8 9 8 13 12 11 10 9 9 11 12 16 24 26 27 28 29 29 29 29 29 28 28
3 4 5 5 7 10 12 13 12 8 6 6 7 10 11 10 10 11 13 14 12 4 7 12 10 12 10 11 23 28 29 30 30 29 28 27 26 26
3 3 4 5 8 6 10 13 12 15 16 11 10 11 13 12 12 13 12 13 15 10 11 16 11 13 11 17 26 30 31 30 27 26 25 24 25 25
2 2 4 5 7 9 7 6 7 8 12 10 9 11 11 10 11 12 12 12 12 10 8 12 13 13 13 9 25 28 27 25 24 25 26 26 26 26
4 4 6 6 13 15 9 7 8 9 14 19 20 19 22 23 18 10 9 11 14 12 6 6 6 10 12 12 14 20 21 24 26 27 27 26 25 24
4 5 9 11 14 16 9 7 9 9 9 10 11 14 13 15 17 8 7 10 11 8 4 4 5 7 8 5 6 8 14 22 26 26 26 26 25 16
4 4 6 15 17 17 15 7 12 12 6 7 9 9 8 7 7 6 7 9 11 10 8 6 8 6 7 9 7 8 11 11 12 16 21 24 23 17
5 5 7 16 17 17 12 13 17 14 6 8 8 9 9 9 9 10 10 10 12 15 14 12 11 11 12 15 12 8 9 10 11 13 11 17 18 21
6 12 14 15 14 10 13 15 12 7 7 8 9 9 8 9 10 10 10 10 12 15 16 13 13 12 12 14 13 14 13 11 11 10 9 10 11 11
6 8 12 12 10 11 10 9 6 7 8 8 10 10 10 9 10 9 10 11 11 12 10 11 12 13 13 14 15 17 15 10 9 11 12 13 12 12
5 3 4 6 6 6 7 6 6 7 8 8 9 11 11 11 11 8 7 9 10 12 14 10 8 10 14 15 15 16 15 14 13 12 13 15 14 12
6 5 6 6 7 8 9 9 9 8 8 9 10 10 11 11 12 10 9 10 12 13 13 13 12 12 9 10 17 16 14 13 13 13 13 15 17 12
4 5 6 6 7 8 8 9 10 10 9 9 10 10 10 11 11 12 11 11 12 12 13 12 11 11 14 16 8 13 13 14 15 14 13 14 16 14
4 5 6 7 8 8 9 9 10 10 9 9 10 10 10 11 11 12 11 12 13 14 14 12 10 11 12 14 14 14 16 15 14 15 14 13 15 19
6 6 7 7 8 8 8 9 10 10 11 11 11 11 10 11 11 12 12 17 15 13 14 14 13 19 14 11 12 13 12 15 17 15 15 15 14 13
7 7 8 8 8 8 8 9 9 10 11 11 11 11 11 11 12 14 13 13 13 13 15 14 14 13 11 12 14 15 16 16 17 21 20 17 11 8
8 8 8 8 8 8 8 9 11 11 11 11 11 11 11 12 11 12 13 13 13 14 14 14 13 11 11 12 13 14 17 17 13 13 13 16 18 19
Wind_Direction
127 130 137 149 142 153 159 163 185 261 276 265 281 288 318 318 314 313 310 309 306 306 305 303 302 301 300 298 296 295 294 293 290 288 285 283 280 278
129 138 147 164 168 173 178 184 186 208 252 252 251 272 298 306 310 312 305 307 307 304 302 302 302 300 299 298 297 296 294 292 290 288 286 285 283 281
126 154 192 195 199 202 199 204 211 208 255 268 251 273 282 287 300 299 299 296 294 301 302 301 301 300 299 299 297 296 294 293 292 290 289 287 285 283
136 164 227 228 224 223 219 226 232 227 242 276 279 275 274 281 285 288 299 298 296 299 300 301 300 300 299 298 297 297 297 295 293 291 288 286 283 281
100 226 260 247 247 242 237 241 245 253 245 268 285 277 277 285 289 289 288 286 291 296 299 299 298 298 298 298 299 299 297 295 292 290 287 284 281 279
32 323 282 258 251 249 247 248 251 260 265 271 283 288 286 285 285 295 301 288 291 295 293 293 295 297 296 297 296 296 294 292 290 287 285 283 281 279
349 325 307 296 280 273 266 252 245 253 264 272 286 295 297 301 300 299 302 302 291 283 280 282 287 285 287 290 293 291 290 289 289 288 287 284 282 279
342 336 327 322 318 321 311 303 297 289 287 281 289 294 296 295 296 297 300 304 302 278 292 297 290 288 285 280 288 291 292 292 292 290 287 284 282 279
355 345 345 338 342 308 302 303 300 298 298 297 291 288 291 292 292 293 293 295 296 298 300 296 292 289 286 288 293 293 293 293 292 290 289 288 286 284
325 314 308 306 310 305 285 282 273 278 285 286 274 275 279 281 279 291 296 297 291 285 279 286 291 289 291 285 290 289 290 292 293 294 293 290 286 283
305 313 321 304 310 314 313 296 288 284 294 297 296 298 301 305 306 303 301 302 300 297 276 268 283 296 293 283 278 284 289 293 294 293 292 289 287 285
314 311 323 321 316 318 313 300 298 294 292 298 302 302 298 296 301 293 283 290 295 296 263 264 285 308 301 260 253 272 284 290 291 291 291 290 288 284
317 310 308 320 319 319 319 308 301 310 319 313 306 301 298 292 290 279 269 276 284 281 282 290 286 280 277 290 282 271 277 282 287 288 290 288 284 280
312 299 301 317 323 324 323 315 318 327 323 310 305 303 303 303 301 295 285 274 267 271 278 280 280 283 285 288 292 288 282 281 282 283 280 282 282 281
308 315 320 326 330 327 320 323 329 322 308 306 305 301 296 291 294 296 293 284 278 274 272 265 265 273 274 279 283 289 295 292 281 274 273 274 276 275
309 322 333 333 331 324 323 321 313 303 308 304 303 301 301 298 297 296 299 304 301 296 277 256 254 261 272 274 277 283 283 281 281 280 281 281 275 268
344 352 332 328 328 325 320 314 310 314 312 305 303 304 304 303 301 299 291 297 294 297 303 301 267 256 258 268 276 275 276 277 275 278 282 284 278 268
352 331 325 323 321 321 320 319 317 313 309 307 303 300 300 301 302 301 295 296 296 296 296 299 304 304 289 260 242 260 270 274 279 279 279 283 285 275
344 315 311 311 311 311 311 310 309 307 303 300 298 298 298 298 299 300 302 300 298 296 295 295 297 299 304 307 274 237 259 280 286 285 279 277 281 283
314 304 306 307 308 308 307 306 305 306 304 301 299 297 297 298 299 299 299 298 300 300 301 298 292 292 292 295 296 290 276 273 281 285 286 282 278 278
312 307 303 303 303 302 301 299 299 300 300 300 299 297 298 298 297 297 298 300 302 301 302 302 296 298 294 289 290 292 292 283 280 284 288 289 289 286
308 306 304 301 301 299 298 298 300 299 300 299 298 297 297 295 296 297 299 300 300 299 299 299 299 301 300 299 299 299 302 304 300 296 287 279 284 288
308 306 303 302 300 297 297 297 297 297 296 296 297 298 299 299 298 296 297 298 299 302 305 308 309 308 305 303 302 302 303 307 311 313 306 298 294 289
Height
1496 1496 1496 1496 1495 1494 1493 1491 1490 1485 1481 1480 1479 1477 1474 1470 1467 1462 1458 1454 1451 1447 1444 1440 1437 1434 1432 1429 1427 1425 1422 1420 1418 1417 1415 1413 1412 1411
1492 1492 1492 1492 1490 1489 1488 1486 1484 1481 1476 1473 1472 1470 1467 1463 1459 1455 1450 1446 1443 1439 1435 1432 1429 1426 1423 1420 1418 1415 1413 1411 1409 1407 1405 1403 1402 1400
1488 1489 1488 1487 1486 1484 1482 1481 1479 1476 1470 1466 1465 1462 1459 1455 1451 1447 1443 1439 1435 1431 1427 1424 1421 1417 1414 1411 1408 1406 1403 1401 1399 1396 1394 1393 1391 1390
1485 1484 1484 1482 1481 1479 1477 1475 1473 1470 1465 1459 1457 1454 1451 1448 1443 1439 1435 1431 1427 1423 1419 1416 1412 1409 1405 1402 1399 1396 1393 1390 1388 1385 1383 1382 1381 1380
1480 1480 1479 1477 1475 1473 1471 1469 1466 1463 1460 1455 1450 1447 1443 1440 1435 1431 1427 1423 1419 1415 1411 1407 1404 1400 1397 1394 1390 1386 1383 1379 1376 1374 1372 1371 1370 1369
1476 1475 1473 1472 1470 1467 1465 1463 1460 1457 1454 1450 1445 1441 1437 1433 1429 1424 1417 1414 1410 1407 1403 1399 1396 1392 1389 1385 1381 1377 1373 1369 1366 1364 1362 1361 1360 1359
1472 1470 1468 1466 1464 1462 1460 1457 1454 1451 1448 1444 1439 1435 1431 1427 1423 1418 1412 1406 1401 1399 1393 1390 1386 1382 1379 1375 1371 1367 1363 1360 1357 1355 1353 1351 1349 1348
1467 1465 1463 1461 1459 1456 1454 1452 1450 1447 1443 1439 1434 1430 1425 1422 1417 1412 1407 1400 1393 1391 1387 1381 1379 1373 1370 1366 1362 1358 1354 1350 1347 1344 1342 1340 1339 1338
1462 1460 1458 1455 1453 1450 1447 1445 1443 1441 1439 1435 1429 1425 1420 1416 1412 1406 1402 1396 1389 1385 1381 1372 1370 1364 1361 1356 1353 1349 1345 1341 1338 1335 1333 1331 1329 1327
1458 1455 1452 1449 1447 1444 1441 1439 1436 1434 1432 1428 1424 1419 1415 1411 1407 1402 1396 1389 1383 1379 1376 1366 1360 1356 1350 1346 1344 1340 1337 1333 1329 1326 1323 1321 1318 1317
1453 1450 1447 1444 1441 1439 1437 1433 1430 1427 1425 1421 1417 1414 1410 1406 1401 1396 1390 1383 1375 1370 1368 1361 1353 1346 1339 1335 1333 1330 1327 1324 1320 1316 1313 1310 1308 1307
1448 1445 1442 1439 1436 1434 1431 1427 1423 1420 1417 1413 1410 1407 1403 1399 1395 1391 1385 1378 1371 1363 1359 1355 1347 1342 1329 1321 1321 1320 1317 1314 1311 1307 1303 1301 1299 1297
1443 1440 1437 1434 1432 1429 1426 1422 1419 1416 1411 1407 1404 1400 1397 1393 1389 1385 1380 1374 1367 1360 1356 1351 1343 1338 1332 1319 1311 1311 1309 1304 1300 1297 1294 1292 1291 1289
1438 1435 1432 1430 1427 1424 1420 1417 1415 1411 1407 1403 1399 1395 1391 1386 1382 1378 1374 1368 1362 1356 1350 1346 1338 1332 1326 1317 1307 1301 1299 1296 1292 1288 1285 1283 1281 1279
1434 1431 1429 1425 1422 1419 1417 1413 1410 1406 1402 1398 1394 1389 1385 1381 1376 1371 1366 1360 1355 1350 1344 1339 1333 1326 1321 1313 1304 1296 1290 1286 1284 1281 1277 1273 1270 1268
1431 1428 1425 1422 1419 1416 1413 1410 1407 1403 1399 1394 1389 1385 1380 1375 1370 1365 1358 1352 1344 1339 1337 1332 1326 1320 1313 1307 1300 1291 1285 1280 1275 1272 1268 1262 1259 1257
1428 1425 1422 1419 1416 1413 1410 1407 1403 1399 1395 1391 1385 1380 1375 1370 1364 1359 1353 1346 1339 1332 1326 1323 1319 1313 1306 1300 1292 1285 1278 1273 1268 1264 1258 1252 1247 1245
1425 1422 1419 1416 1413 1409 1406 1403 1399 1396 1391 1386 1381 1376 1370 1365 1359 1353 1348 1341 1335 1328 1321 1316 1310 1303 1296 1290 1286 1278 1272 1265 1260 1255 1251 1244 1236 1233
1423 1420 1417 1414 1410 1407 1403 1399 1396 1392 1387 1383 1377 1372 1367 1360 1354 1348 1342 1336 1330 1323 1317 1311 1305 1299 1291 1281 1274 1272 1266 1258 1252 1246 1242 1236 1228 1222
1421 1418 1414 1411 1408 1404 1401 1397 1392 1388 1384 1379 1374 1369 1363 1357 1350 1344 1338 1332 1325 1318 1312 1306 1301 1295 1289 1281 1270 1262 1260 1253 1246 1238 1232 1226 1219 1214
1418 1415 1412 1409 1405 1402 1398 1394 1390 1385 1380 1375 1370 1365 1359 1353 1346 1340 1334 1328 1322 1315 1308 1301 1296 1291 1284 1276 1266 1256 1250 1247 1240 1233 1225 1218 1211 1204
1416 1413 1410 1407 1403 1399 1395 1391 1387 1382 1377 1372 1366 1361 1355 1350 1343 1337 1331 1325 1318 1312 1305 1297 1290 1284 1278 1271 1262 1252 1243 1237 1232 1226 1220 1213 1207 1199
1413 1410 1407 1404 1400 1396 1392 1388 1384 1379 1374 1369 1363 1358 1352 1346 1340 1334 1328 1322 1315 1309 1301 1293 1286 1280 1273 1267 1258 1249 1241 1233 1225 1218 1213 1208 1202 1196